Home   Weather   Ibiza   Past weeks
Flag for Spain

Past Weather in Ibiza, Ibiza, Spain — Yesterday and Last 2 Weeks

Now
70 °F

Clear.


Feels Like: 70 °F
Forecast: 77 / 63 °F
Wind: 8 mph from Southwest

Location: Ibiza / Es Codola

Current Time: Oct 17, 2019 at 8:00:47 pm

Latest Report: Oct 17, 2019 at 7:30 pm


Visibility: 10 mi

Pressure: 30.01 "Hg

Humidity: 73%

Dew Point: 61 °F

Location of IbizaLocation

Past Weather in Ibiza — Graph

°F

Ibiza Temperature Yesterday

Maximum temperature yesterday: 75 °F (at 1:00 pm)
Minimum temperature yesterday: 54 °F (at 1:00 am)
Average temperature yesterday: 66 °F

High & Low Weather Summary for the Past Weeks

 TemperatureHumidityPressure
High81 °F (Oct 5, 1:00 pm)100% (Oct 6, 7:00 am)30.18 "Hg (Oct 6, 7:00 am)
Low54 °F (Oct 16, 1:00 am)36% (Oct 16, 2:30 pm)29.83 "Hg (Oct 14, 5:44 pm)
Average71 °F74%30.04 "Hg
* Reported Oct 2 7:00 pm — Oct 17 7:00 pm, Ibiza. Weather by CustomWeather, © 2019

Note: Actual official high and low records may vary slightly from our data, if they occured in-between our weather recording intervals... More about our weather records

Advertising

Ibiza Weather History for the Previous 24 Hours

Scroll right to see more
 ConditionsComfort  
Time TempWeatherWind HumidityBarometerVisibility
7:00 pm
Thu, Oct 17
72 °FPassing clouds.7 mph69%30.01 "HgN/A
6:30 pm73 °FSunny.8 mph61%30.01 "Hg10 mi
4:30 pm75 °FPassing clouds.10 mph50%30.01 "HgN/A
4:00 pm75 °FPassing clouds.12 mph54%30.04 "HgN/A
3:30 pm75 °FPassing clouds.13 mph54%30.04 "HgN/A
3:00 pm75 °FPassing clouds.13 mph50%30.04 "HgN/A
2:30 pm77 °FPassing clouds.14 mph47%30.04 "HgN/A
2:00 pm75 °FPassing clouds.14 mph54%30.04 "HgN/A
1:30 pm75 °FSunny.14 mph57%30.07 "Hg10 mi
1:00 pm75 °FPassing clouds.15 mph57%30.07 "HgN/A
12:30 pm75 °FPassing clouds.13 mph57%30.07 "HgN/A
12:00 pm75 °FSunny.14 mph57%30.07 "Hg10 mi
11:30 am73 °FPassing clouds.13 mph65%30.07 "HgN/A
11:00 am73 °FPassing clouds.12 mph65%30.07 "HgN/A
10:30 am73 °FSunny.12 mph65%30.04 "Hg10 mi
10:00 am72 °FPassing clouds.10 mph69%30.04 "HgN/A
9:30 am72 °FSunny.9 mph65%30.04 "Hg10 mi
9:00 am70 °FSunny.9 mph69%30.04 "Hg10 mi
8:30 am70 °FSunny.10 mph69%30.01 "Hg10 mi
8:00 am70 °FPassing clouds.10 mph69%30.01 "HgN/A
7:30 am68 °FPassing clouds.9 mph73%30.01 "HgN/A
7:00 am70 °FPassing clouds.9 mph69%30.01 "HgN/A
6:30 am68 °FPassing clouds.9 mph69%30.01 "HgN/A
6:00 am70 °FPassing clouds.10 mph64%30.01 "HgN/A
5:30 am68 °FPassing clouds.10 mph73%30.01 "HgN/A
5:00 am68 °FPassing clouds.10 mph73%30.01 "HgN/A
4:30 am70 °FPassing clouds.10 mph69%30.04 "HgN/A
4:00 am70 °FPassing clouds.12 mph69%30.04 "HgN/A
3:30 am70 °FPassing clouds.12 mph64%30.04 "HgN/A
3:00 am70 °FPassing clouds.13 mph64%30.04 "HgN/A
2:30 am70 °FPassing clouds.12 mph64%30.04 "HgN/A
2:00 am70 °FPassing clouds.10 mph64%30.04 "HgN/A
1:30 am70 °FPassing clouds.10 mph64%30.07 "HgN/A
1:00 am70 °FPassing clouds.9 mph64%30.07 "HgN/A
12:30 am70 °FPassing clouds.8 mph69%30.07 "HgN/A
12:00 am70 °FPassing clouds.9 mph69%30.07 "HgN/A
11:30 pm
Wed, Oct 16
70 °FPassing clouds.8 mph69%30.07 "HgN/A
11:00 pm70 °FPassing clouds.7 mph64%30.07 "HgN/A
10:30 pm70 °FPassing clouds.8 mph64%30.04 "HgN/A
10:00 pm70 °FPassing clouds.8 mph64%30.04 "HgN/A
9:30 pm70 °FPassing clouds.8 mph64%30.04 "HgN/A
9:00 pm70 °FPassing clouds.8 mph64%30.04 "HgN/A
8:30 pm70 °FPassing clouds.8 mph64%30.04 "HgN/A
8:00 pm70 °FPassing clouds.9 mph64%30.04 "HgN/A
Weather by CustomWeather, © 2019

See weather overview